Location: Étang Rond
(42.7927°N, 1.0661°E)
Time: 21:51:52
(UTC+00:00)

Cosmos 1809 Rocket - Pass Details

Date: 08 November 2025
Orbit: 941 x 963 km, 82.5° (Epoch: 13 December)

Event Time Altitude Azimuth Distance (km) Brightness Sun altitude
Rises 04:13:18 0° 188° (S) 3,611 7.4 -26.9°
Reaches altitude 10° 04:15:47 10° 190° (S) 2,666 6.7 -26.5°
Maximum altitude 04:21:53 83° 278° (W) 959 4.3 -25.3°
Drops below altitude 10° 04:28:01 10° 7° (N) 2,671 6.9 -24.2°
Sets 04:30:31 0° 8° (N) 3,618 7.6 -23.8°
